Regional Weather Roundup
Issued by NWS State College, PA

Home | Current Version | Previous Version | Graphics & Text | Print | Product List | Glossary Off
Versions: 1 2 3 4 5 6 7 8 9 10 11 12 13 14 15 16 17 18 19 20 21 22 23 24 25 26 27 28 29 30 31 32 33 34 35 36 37 38 39 40 41 42 43 44 45 46 47 48 49 50

000
ASUS41 KCTP 131403
RWRCTP

REGIONAL WEATHER ROUNDUP
NATIONAL WEATHER SERVICE STATE COLLEGE PA
900 AM EST WED DEC 13 2017

Note: "fair" indicates few or no clouds below 12,000 feet with no
significant weather and/or obstructions to visibility.

* = STATION THAT DOES NOT REPORT PRECIPITATION /E.G. RAIN...SNOW...ETC/
    THUNDER OR FOG.

PAZ002>004-007>009-013>016-020>023-029>032-131500-
WESTERN PENNSYLVANIA

CITY           SKY/WX    TMP DP  RH WIND       PRES   REMARKS
ERIE           CLOUDY    19  10  68 W12G21    29.78S WCI   7
MEADVILLE      LGT SNOW  14  10  84 W9        29.75S FOG     WCI   2
FRANKLIN*      LGT SNOW  13   9  84 W9        29.74F VSB 1   WCI   1
NEW CASTLE     FLURRIES  16  10  77 W8        29.82F WCI   5
BEAVER COUNTY  CLOUDY    16   7  67 SW9G17    29.81S WCI   4
BUTLER*        CLOUDY    16   6  65 W16       29.79F WCI   1
PITTSBURGH INT CLOUDY    18   6  59 SW9       29.82F WCI   7
PITTSBURGH     CLOUDY    15   4  61 W12       29.82S WCI   2
INDIANA*       PTSUNNY   16   9  73 W16       29.81S WCI   0
LATROBE        PTSUNNY   16   5  62 W14G25    29.83F WCI   1
WASHINGTON CO* CLOUDY    18   9  68 SW9       29.87F WCI   7
$$

PAZ004>006-010>012-017>019-024>028-033>037-041-042-045-046-049>053-131500-
CENTRAL PENNSYLVANIA

CITY           SKY/WX    TMP DP  RH WIND       PRES   REMARKS
BRADFORD       LGT SNOW  13  10  88 NW14      29.60S FOG     WCI  -2
DUBOIS         CLOUDY    12   7  80 W18G25    29.68R HAZE    WCI  -6
CLEARFIELD     MIX PCPN  15   7  70 W9G26     29.70R WCI   3
JOHNSTOWN      CLOUDY    11   2  67 W21G28    29.69R WCI  -8
ALTOONA        CLOUDY    17   4  56 W21       29.74R WCI   0
STATE COLLEGE  PTSUNNY   18   7  62 W23G35    29.69R WCI   0
WILLIAMSPORT   PTSUNNY   23   8  52 W22       29.64R WCI   8
SELINSGROVE    MOSUNNY   22   8  55 W15G29    29.69R WCI   9
FT INDIANTOWN  MOSUNNY   22   5  47 W20G36    29.68R WCI   7
CAPITAL CITY   MOSUNNY   24   3  40 NW15G33   29.73R WCI  11
HARRISBURG     MOSUNNY   24   8  50 NW26      29.72R WCI   8
YORK           SUNNY     22   5  48 W20G30    29.73R WCI   7
$$

PAZ038>040-043-044-047-048-054-055-060>062-067>071-131500-
EASTERN PENNSYLVANIA

CITY           SKY/WX    TMP DP  RH WIND       PRES   REMARKS
SCRANTON       CLOUDY    19   7  59 W17       29.55R WCI   4
MOUNT POCONO   LGT SNOW  12   8  84 W24G37    29.42S VSB 1   WCI  -8
ALLENTOWN      MOSUNNY   24   6  46 W17G30    29.61R WCI  11
QUAKERTOWN*    MOSUNNY   23   5  46 W16G29    29.62R WCI  10
READING        CLOUDY    24   9  52 W17G25    29.67R WCI  11
LANCASTER      PTSUNNY   23   7  50 W20G30    29.69S WCI   8
COATESVILLE    SUNNY     23   7  50 W29G39    29.67R WCI   6
POTTSTOWN      MOSUNNY   22   6  50 W16G30    29.67R WCI   8
BLUE BELL      PTSUNNY   23   7  50 W20G28    29.67R WCI   8
DOYLESTOWN     MOSUNNY   22   5  48 W23G33    29.61R WCI   6
WILLOW GROVE   NOT AVBL
NORTH PHILA    SUNNY     26   7  44 W18G31    29.67R WCI  13
PHILADELPHIA   MOSUNNY   24   4  42 W23G30    29.70R WCI   9
$$




USA.gov is the U.S. government's official web portal to all federal, state and local government web resources and services.